Location: Sungai Bunut
(2.6333°N, 113.7333°E)
Time: 07:43:45
(UTC+00:00)

Vanguard 3 - Pass Details

Date: 12 December 2023
Orbit: 508 x 3239 km, 33.3° (Epoch: 21 February)

Event Time Altitude Azimuth Distance (km) Brightness Sun altitude
Rises 21:40:32 0° 268° (W) 2,655 - -9.8°
Exits shadow 21:42:29 - 252° (WSW) 2,055 8.8 -9.4°
Reaches altitude 10° 21:44:17 10° 229° (SW) 1,712 8.6 -9.0°
Maximum altitude 21:45:21 11° 211° (SSW) 1,666 8.7 -8.7°
Drops below altitude 10° 21:46:26 10° 194° (SSW) 1,757 9.0 -8.5°
Sets 21:50:31 0° 156° (SSE) 2,888 10.8 -7.5°
